Wind_Speed
12 13 15 23 29 26 21 19 19 19 18 17 16 14 13 13 14 15 16 16 16 15 13 12 11 11 11 10 10 9 9 9 8 7 6 5 4 3 2 1 2 3 4 4 5 5 5 6 6 6 6 5 5 5 5 5 5 6 6 6 7 7 8 9 9 10 11 12 12 13 14 15 15 17 17 18 19 20 20 19 19 19 18 19 19
6 7 8 16 24 26 25 24 22 20 18 17 16 15 15 15 16 17 17 18 19 19 19 18 16 15 14 13 13 12 11 11 11 11 11 10 9 8 6 5 4 4 5 5 5 5 6 6 7 8 7 7 6 6 6 6 7 7 8 8 9 10 10 11 11 12 13 14 14 15 16 17 17 18 19 20 20 21 22 22 22 21 21 21 21
5 6 8 10 14 18 24 26 24 21 20 18 17 18 19 20 21 21 20 20 22 23 24 24 24 22 19 17 16 14 13 13 12 12 11 11 11 11 9 9 8 8 7 7 8 8 8 9 9 9 9 9 8 8 8 9 9 10 10 11 12 12 13 13 14 14 14 15 17 17 18 18 19 20 21 21 21 22 22 23 23 23 23 24 23
5 8 10 10 11 14 18 22 22 21 20 20 20 23 25 25 25 25 24 24 26 27 28 29 30 27 24 22 20 18 17 17 16 14 12 9 10 10 10 10 10 10 10 10 10 10 10 10 10 10 11 11 11 11 12 12 12 13 13 13 14 15 16 16 17 17 17 17 18 19 19 20 20 21 22 23 23 23 23 23 24 24 24 24 24
6 8 11 12 12 14 16 19 21 22 23 24 25 28 30 31 30 28 25 26 28 30 31 31 31 30 27 25 25 24 23 22 20 18 15 12 11 11 11 11 11 12 12 12 12 12 11 11 11 11 11 12 14 14 15 14 15 15 15 16 17 17 18 19 20 21 22 21 21 21 21 22 21 22 23 24 24 24 25 25 25 25 25 25 25
5 6 9 10 11 13 14 15 17 19 23 26 27 30 32 33 32 29 27 27 29 30 32 32 31 30 28 26 24 24 27 27 24 20 17 17 16 15 15 14 14 14 14 14 14 14 13 12 12 12 12 14 15 16 16 16 17 17 18 19 20 21 21 22 23 25 26 26 26 26 26 26 26 25 26 26 26 26 26 26 26 26 27 26 26
4 3 3 5 7 9 10 11 13 14 17 20 23 26 29 30 30 28 27 25 24 24 25 26 25 23 22 20 18 20 23 24 22 18 16 18 20 19 17 16 15 16 17 17 18 18 18 17 16 15 15 16 17 17 18 18 19 20 21 22 23 24 24 25 26 28 29 29 29 30 30 29 29 29 30 30 30 30 30 29 27 26 27 27 27
5 4 2 3 5 6 6 7 9 11 12 14 17 20 23 24 24 23 22 21 20 19 18 17 17 16 15 14 14 16 17 16 15 14 14 15 17 19 19 18 18 19 20 20 19 19 20 20 19 19 18 19 20 20 20 21 21 22 23 25 26 26 27 28 29 30 31 31 31 31 32 31 31 31 32 33 33 33 34 33 31 29 28 28 27
7 7 7 7 7 7 7 7 8 9 9 11 13 14 15 16 16 16 16 16 17 16 16 15 15 14 14 14 15 16 16 15 14 15 14 15 17 18 19 21 22 23 25 24 22 20 20 21 22 21 21 22 23 23 23 23 24 25 26 27 28 29 31 32 32 33 34 34 33 33 33 32 32 32 32 33 34 35 35 36 35 33 32 32 30
13 13 13 13 13 13 13 12 13 13 13 13 13 13 14 14 14 14 15 16 17 17 18 17 16 16 16 17 18 19 18 18 17 18 18 19 20 20 20 22 24 25 27 28 27 24 22 22 23 23 23 24 25 25 25 26 26 27 28 29 31 32 33 34 35 36 36 36 35 35 35 34 33 33 34 33 35 36 35 36 36 35 35 35 33
16 17 17 16 17 17 17 17 18 18 19 19 18 18 18 19 18 18 19 19 20 21 21 20 20 19 19 20 21 21 21 20 20 20 20 21 22 22 22 23 24 26 28 30 30 28 26 24 25 25 26 26 26 27 27 28 28 28 29 31 33 34 35 36 37 37 37 37 36 35 36 35 34 34 35 35 36 37 36 36 37 37 36 37 36
17 18 18 18 18 18 18 18 19 20 20 21 21 22 23 23 23 24 24 24 23 23 22 21 21 21 21 22 22 23 23 22 22 22 22 22 23 24 24 24 26 28 29 31 32 32 29 27 27 28 28 28 28 29 29 30 30 30 31 33 34 35 36 37 37 37 37 37 37 35 35 35 35 34 34 35 36 37 37 37 37 38 38 38 38
18 18 18 19 19 19 19 19 19 20 20 20 21 21 22 23 23 23 24 24 25 25 24 23 22 21 21 22 22 23 23 23 23 23 23 23 24 25 26 26 27 29 30 31 32 32 31 31 31 30 31 30 30 31 31 31 31 31 33 35 36 36 36 37 37 37 37 38 38 36 35 36 36 35 34 35 37 37 37 37 37 39 39 39 38
17 18 18 19 19 19 20 20 21 21 21 20 20 20 20 20 20 20 20 21 22 23 24 25 25 24 23 22 22 23 24 23 23 22 21 22 23 24 25 26 27 28 28 29 30 32 32 33 33 32 32 32 32 33 33 33 32 33 34 36 37 37 37 37 37 37 37 38 38 38 37 37 38 37 35 36 38 38 38 38 38 39 40 39 38
17 17 18 18 18 19 19 20 20 20 20 20 20 20 20 21 21 20 20 20 20 20 22 23 24 25 25 24 24 24 24 24 22 20 20 22 23 23 24 25 26 27 27 28 30 32 34 34 34 34 33 33 33 34 33 33 34 35 36 37 37 38 38 38 38 39 39 39 39 40 39 39 39 39 38 38 39 40 40 41 41 41 41 41 40
18 18 19 18 18 18 19 19 20 20 20 21 21 20 21 21 22 22 21 21 21 21 21 21 22 24 24 24 25 24 24 24 23 21 21 23 23 23 24 25 25 26 27 29 30 32 34 35 35 35 35 35 35 35 34 35 36 36 37 37 38 38 38 38 39 40 41 40 40 41 41 40 40 40 41 41 41 41 42 43 43 43 43 44 43
19 20 20 20 19 19 20 20 20 21 22 22 21 21 21 22 22 23 23 23 22 22 22 22 23 23 23 23 23 23 23 23 23 23 22 23 23 23 25 26 26 26 27 28 29 32 35 36 35 35 35 36 36 36 36 37 37 37 37 38 39 39 39 39 40 40 40 40 40 41 41 42 42 43 43 43 43 43 44 44 43 42 44 45 45
20 20 19 20 20 20 20 20 21 22 23 24 24 23 23 23 23 24 25 25 25 25 25 25 24 23 22 22 22 22 22 22 23 23 22 22 22 23 24 26 27 27 28 29 31 34 36 37 36 36 36 37 37 37 37 38 38 38 38 39 40 40 39 39 39 38 38 39 40 41 42 42 43 44 44 44 43 43 44 45 44 43 44 46 46
20 20 20 21 21 21 22 22 23 24 25 26 26 26 26 25 25 26 27 28 29 29 29 29 29 28 27 26 26 25 25 25 24 23 23 23 24 24 25 26 27 28 28 30 33 35 36 37 37 38 38 39 39 39 39 38 38 38 39 39 39 38 37 37 37 37 38 39 40 41 42 43 43 44 44 44 43 43 44 45 45 45 46 46 47
22 22 22 23 23 24 24 24 25 26 27 28 28 29 29 29 29 29 30 31 32 32 32 33 32 32 31 30 30 29 28 28 27 26 25 25 26 26 27 28 28 29 30 31 33 35 35 36 38 39 39 40 41 40 38 38 38 38 37 37 36 36 36 37 38 39 40 41 42 42 43 43 44 44 44 44 44 44 44 45 45 46 47 48 47
25 25 26 26 27 28 28 28 28 28 29 29 30 30 30 31 31 32 33 34 35 35 35 35 34 34 33 33 32 32 31 31 30 29 27 26 26 26 27 29 30 30 31 31 32 34 35 35 36 38 39 39 39 38 37 37 37 37 35 35 35 37 38 39 40 41 42 43 44 44 45 45 45 45 44 44 44 44 44 44 45 46 47 48 48
26 27 28 29 30 31 31 31 31 31 31 32 32 32 32 32 32 32 33 35 36 36 36 36 35 34 34 34 34 34 34 33 32 31 30 28 26 26 27 30 31 30 31 31 32 33 34 34 35 36 37 36 35 34 34 35 36 35 35 36 38 39 41 42 43 44 44 45 45 45 45 45 45 45 45 44 45 45 45 45 45 46 47 47 48
29 30 30 30 31 32 33 33 34 34 34 35 35 35 34 34 34 34 35 36 38 39 38 37 36 35 35 35 36 35 35 33 33 32 30 29 28 28 29 31 31 30 30 31 31 32 32 33 33 33 33 32 31 32 33 34 35 35 37 39 40 42 43 44 45 45 45 46 46 46 46 46 46 46 46 46 46 46 46 46 46 47 47 47 48
33 34 33 31 31 32 33 33 35 36 37 38 38 37 36 36 36 36 35 36 38 40 39 37 35 34 33 33 33 32 31 30 30 30 30 30 29 29 30 30 30 30 30 30 30 30 30 30 30 30 29 29 29 31 33 34 36 37 39 41 42 43 44 44 45 45 46 46 47 47 48 48 48 48 48 48 48 48 48 47 47 47 47 47 48
33 32 32 32 32 33 33 33 35 36 37 38 39 38 38 37 36 35 34 35 37 38 37 34 32 31 31 30 28 27 27 27 28 29 30 29 29 28 29 29 29 29 29 28 27 27 26 25 25 25 26 27 29 32 34 36 37 39 40 41 41 42 43 44 45 46 46 47 48 49 50 50 51 51 51 51 50 50 50 49 48 47 46 46 46
32 32 33 34 34 34 34 35 35 35 36 36 36 36 35 35 34 33 32 33 34 34 34 32 31 30 28 26 24 25 26 27 28 28 28 28 27 27 27 28 27 27 26 25 24 23 23 22 23 24 26 29 31 33 35 36 37 38 39 40 41 42 43 44 46 47 48 49 50 51 52 52 53 52 52 52 51 51 50 50 49 48 47 46 46
35 36 36 35 34 32 32 32 32 31 31 32 33 32 32 32 32 31 30 31 32 32 32 31 29 27 26 24 24 26 27 26 26 27 26 26 26 25 25 24 23 22 22 21 20 20 20 22 24 26 28 30 32 33 34 35 36 37 38 40 41 43 44 46 47 49 50 51 52 53 53 54 53 53 52 52 51 51 49 48 48 48 47 46 46
37 35 33 31 30 29 28 29 29 29 30 31 32 32 32 32 32 31 31 31 31 31 30 28 26 25 25 24 25 27 27 25 25 24 24 23 22 20 18 17 17 18 18 17 18 20 21 23 25 27 28 29 31 32 33 34 36 38 39 41 42 44 46 48 49 50 52 52 53 53 53 52 52 51 50 49 49 48 47 46 46 45 44 44 44
32 30 29 29 29 29 30 31 32 32 33 34 35 34 34 34 33 32 31 31 31 30 27 26 25 25 25 26 27 26 24 21 19 19 18 16 15 14 13 14 15 16 17 18 19 21 23 24 25 26 27 28 30 31 33 34 36 38 40 41 43 45 47 49 49 50 50 50 50 49 48 47 47 46 45 45 44 42 42 41 41 41 40 40 39
29 30 31 31 32 32 33 33 34 35 36 36 36 35 34 33 33 32 31 31 30 28 25 25 26 27 28 27 25 22 19 15 13 14 14 12 12 13 13 14 15 16 17 19 20 21 21 22 24 25 27 28 30 31 33 34 36 38 40 42 44 45 46 46 47 47 47 46 45 44 43 42 42 41 40 39 37 35 34 34 34 34 33 32 32
31 32 33 33 34 34 34 35 35 36 37 37 36 34 32 32 32 32 32 32 31 30 29 29 30 29 27 22 18 17 17 15 14 14 14 13 13 13 13 14 15 16 17 18 18 19 20 22 24 25 26 28 29 31 33 36 38 40 41 42 42 42 42 42 42 43 42 41 40 39 38 37 36 34 32 31 30 28 26 26 27 27 27 26 26
31 33 34 35 35 36 36 36 36 36 36 35 34 33 32 32 33 32 31 30 29 28 27 27 26 23 19 16 15 17 18 17 14 13 13 12 12 13 13 14 15 15 16 17 18 19 20 22 23 25 26 28 30 32 34 36 37 38 39 40 39 38 37 38 38 38 37 37 36 35 33 31 30 28 26 25 25 24 23 23 23 25 25 24 24
32 34 35 35 36 36 36 37 37 36 35 35 34 33 31 29 26 24 22 20 18 17 17 17 16 16 16 17 18 18 17 13 10 10 11 12 12 12 11 12 13 14 15 16 17 19 20 21 22 24 26 28 29 31 33 34 36 37 38 38 37 36 34 33 33 33 33 33 32 31 29 27 26 25 25 25 25 24 23 23 23 23 23 22 21
32 33 34 34 35 35 35 35 35 34 31 29 26 23 20 17 15 13 12 12 12 13 13 13 14 16 18 19 17 14 11 9 9 10 11 11 10 9 9 11 12 13 14 15 16 17 18 20 22 23 25 27 29 30 32 34 35 36 36 34 33 31 30 29 29 30 30 30 29 28 26 25 24 24 23 23 23 22 21 21 20 20 20 20 20
30 31 31 32 32 31 30 28 26 22 18 15 13 12 11 10 10 10 11 13 14 14 13 14 17 18 17 15 11 8 8 8 9 9 9 8 8 9 10 11 11 12 13 14 15 16 18 19 21 23 25 27 29 31 33 34 35 35 34 32 30 28 27 27 27 27 27 27 26 25 24 22 22 21 20 19 18 17 17 17 17 18 18 18 18
26 27 27 26 24 21 19 17 13 9 8 8 9 10 10 10 10 12 13 15 16 16 17 18 18 16 13 9 7 7 7 7 7 7 7 8 9 9 10 10 11 11 12 13 15 16 17 19 21 23 25 28 30 31 32 34 35 35 34 32 30 28 27 26 26 26 25 23 22 21 20 19 18 17 16 15 14 13 13 14 15 16 16 16 17
23 22 22 19 15 11 8 7 7 8 9 9 10 12 12 11 12 13 14 15 16 16 16 16 14 12 9 7 6 5 6 6 6 6 7 8 8 8 8 9 9 9 10 12 13 15 17 19 22 24 26 28 29 31 33 36 37 36 34 31 28 27 25 24 24 24 23 21 19 18 16 15 13 12 11 10 10 11 12 12 13 13 13 14 15
18 16 13 8 5 5 6 8 10 12 13 15 16 17 18 18 17 17 17 17 16 14 13 12 10 8 7 6 5 5 5 5 5 5 6 6 5 5 6 6 6 7 9 11 13 16 18 20 22 25 27 28 30 32 34 37 37 35 32 28 26 24 24 23 22 21 21 19 17 14 11 9 8 8 9 9 10 10 11 11 11 11 10 11 12
9 6 5 11 15 17 18 19 20 21 22 23 23 23 22 21 19 17 15 13 12 10 9 8 7 7 7 6 6 5 4 2 2 2 3 4 3 3 2 3 5 7 10 12 15 17 18 20 23 25 27 28 30 33 35 36 36 33 29 26 24 23 22 20 19 18 16 15 12 9 6 5 6 7 9 10 10 10 11 12 12 12 12 12 12
7 12 18 23 25 24 24 24 25 24 23 23 22 21 20 18 16 13 11 10 8 8 7 7 8 8 8 7 6 3 1 1 2 3 3 2 1 2 4 5 7 9 11 14 15 17 19 21 24 25 27 28 31 32 34 35 34 31 27 25 24 23 21 19 17 14 12 10 8 5 4 5 7 8 9 9 10 10 11 12 13 14 14 14 14
14 19 22 24 24 24 23 22 21 20 20 20 20 20 19 18 16 14 11 10 8 8 9 9 9 8 8 8 6 2 2 4 4 4 4 4 4 5 5 6 8 11 13 14 16 18 20 22 24 25 27 29 30 31 32 33 32 30 27 26 25 24 21 18 15 12 10 8 6 5 6 9 9 9 9 10 11 11 12 13 13 14 15 16 16
17 20 21 20 20 20 19 17 16 16 17 18 18 18 17 15 14 12 10 8 6 6 7 7 7 6 6 6 4 2 3 3 4 5 5 5 5 5 6 8 10 12 13 15 17 19 21 23 24 25 27 28 29 31 32 33 32 31 29 28 27 25 21 17 14 11 10 9 8 8 9 11 11 12 12 13 13 13 13 13 14 14 15 15 16
19 19 18 18 17 16 16 16 14 14 14 14 14 13 12 12 11 9 5 3 3 4 4 4 4 4 4 3 4 3 2 2 4 5 5 4 4 6 8 9 10 12 13 16 18 20 21 23 24 25 26 28 29 30 32 33 33 32 31 29 28 26 22 18 13 11 9 9 9 10 12 14 15 16 16 16 15 13 12 12 13 13 14 14 13
17 17 17 17 16 15 15 14 14 14 14 13 13 12 10 9 7 4 1 1 2 4 4 3 3 2 2 3 4 3 2 3 5 5 5 5 6 7 9 10 11 12 14 16 18 20 21 22 23 24 25 26 27 29 30 32 33 33 32 31 29 26 23 19 16 12 10 10 11 12 13 15 17 17 17 16 14 10 8 8 10 12 13 13 11
15 15 15 16 15 14 12 12 13 14 14 13 12 11 9 6 4 3 3 3 2 3 4 4 4 3 2 3 3 2 3 4 6 6 6 6 8 9 10 11 12 13 14 16 18 20 21 22 23 23 23 24 26 27 28 29 31 32 32 31 30 27 25 23 20 16 13 11 12 13 14 17 19 19 17 14 11 6 4 5 7 10 12 13 11
14 14 12 12 13 13 12 12 13 14 13 12 11 9 7 5 4 4 4 3 3 4 4 4 4 4 4 3 2 3 5 6 6 6 7 8 9 10 12 12 13 14 15 17 18 20 21 22 23 23 23 24 25 26 26 28 29 30 31 30 29 27 25 24 23 21 17 14 14 16 18 20 21 19 15 12 8 4 2 3 5 8 11 13 13
14 12 10 10 11 12 12 13 12 12 11 10 9 8 6 4 3 3 3 4 5 5 4 3 4 5 5 3 3 4 5 6 6 7 8 9 10 11 12 13 14 15 15 16 18 19 21 22 23 23 24 24 24 25 26 27 28 29 29 30 29 28 26 24 24 24 22 20 18 19 20 21 21 20 17 13 8 4 2 1 2 5 8 10 11
13 11 9 9 10 12 12 11 10 9 8 7 7 6 5 4 3 3 4 4 5 6 6 5 5 4 4 3 4 4 5 5 6 7 8 9 10 11 13 14 15 16 16 16 18 19 20 21 22 24 24 24 24 25 26 27 27 27 28 29 29 29 27 25 24 23 23 23 21 20 20 20 21 22 21 18 12 6 3 0 2 3 6 8 9
11 10 8 8 9 10 9 8 7 6 6 6 5 4 3 3 3 4 4 5 5 6 6 5 5 4 3 3 4 4 5 5 6 7 8 9 10 11 13 14 15 16 17 17 17 18 19 20 22 23 24 24 24 25 27 27 27 27 27 28 29 29 28 26 25 23 23 22 21 20 19 19 20 22 22 21 17 12 6 2 1 1 4 6 7
10 8 6 7 7 7 6 5 5 5 5 5 4 3 2 3 4 4 4 4 5 5 5 5 4 3 3 3 3 4 4 5 6 7 8 9 10 11 13 14 15 16 16 17 17 17 18 20 22 22 23 23 24 25 26 27 27 28 28 28 28 29 28 26 25 24 23 22 21 20 19 19 19 19 20 20 19 16 12 7 3 2 2 2 3
10 8 5 5 5 4 3 3 4 4 5 5 4 3 3 4 3 3 3 3 4 4 4 3 2 2 2 2 3 4 5 6 6 7 8 9 10 11 12 13 14 15 16 16 17 17 18 20 21 21 22 23 23 24 25 26 26 27 28 27 27 27 27 27 26 25 24 23 22 20 19 18 18 17 17 17 18 17 15 13 9 6 3 2 2
Wind_Direction
250 249 238 226 225 224 219 220 228 237 247 254 256 258 263 269 274 277 281 283 286 288 286 285 285 281 278 272 265 259 255 256 260 260 260 255 251 261 274 309 345 345 348 351 357 3 2 1 1 358 356 349 343 335 327 321 312 300 291 280 271 263 254 247 244 250 255 254 254 260 264 265 266 269 270 271 273 275 275 274 273 271 270 268 268
244 244 236 223 224 229 230 227 227 235 245 249 252 258 263 270 275 276 279 282 285 287 286 284 282 277 273 271 268 265 259 258 260 261 265 267 267 271 279 286 287 290 298 306 315 322 323 327 328 327 328 326 321 318 311 307 304 300 297 292 286 281 276 270 264 262 264 264 264 263 264 265 264 266 267 267 268 270 272 274 274 275 274 273 272
203 210 227 227 222 229 235 232 225 227 236 240 246 256 263 271 278 277 279 284 287 288 287 284 280 278 280 280 276 271 262 257 256 256 260 265 269 272 277 284 288 288 288 289 295 301 303 303 303 304 306 305 304 306 306 304 302 300 297 296 293 291 287 283 279 274 270 271 272 271 270 270 271 271 272 271 270 269 268 268 270 270 271 271 272
217 211 222 223 217 227 239 240 236 235 239 241 245 252 260 271 281 280 279 283 286 287 287 286 283 283 286 289 286 280 273 268 265 261 255 251 256 261 266 274 281 285 287 288 292 296 298 297 292 288 290 291 293 298 302 302 300 296 294 293 293 292 291 289 287 285 280 276 275 275 275 274 273 274 274 274 274 274 273 272 271 271 270 270 270
257 241 241 238 237 244 249 252 254 254 254 254 251 253 259 268 278 281 279 280 282 281 281 285 285 282 284 287 284 276 272 272 273 271 263 254 253 255 256 262 269 277 279 281 286 290 292 293 288 282 280 282 286 290 294 294 293 292 292 292 292 292 293 293 292 291 289 287 284 283 283 282 281 280 279 277 276 276 276 275 274 274 273 273 273
264 258 261 260 259 261 261 264 267 263 260 258 255 256 261 266 273 277 277 278 279 278 276 277 278 278 281 284 283 278 272 266 265 268 266 261 258 258 262 262 263 268 269 270 277 281 282 283 282 279 278 279 281 283 287 289 290 291 292 293 295 296 297 297 296 295 293 292 290 288 286 285 284 283 282 281 281 280 278 276 276 276 275 274 274
270 270 276 274 268 263 264 270 272 266 261 260 259 260 262 265 269 273 276 277 279 282 279 272 271 276 280 278 277 281 279 270 266 272 281 273 261 259 270 275 272 270 269 269 275 278 279 277 276 275 277 278 278 279 282 286 287 289 290 292 294 295 297 297 297 296 294 292 290 288 286 285 283 282 281 280 280 280 278 277 276 275 276 275 274
292 298 304 295 282 275 271 269 269 268 263 260 260 260 261 265 269 272 275 277 281 286 286 277 270 272 273 268 267 274 280 282 283 288 296 289 268 261 271 281 283 281 278 278 277 277 278 278 276 276 276 277 278 278 279 281 283 285 287 289 292 293 294 295 295 295 295 294 292 290 288 286 285 283 282 281 281 280 279 279 277 275 274 273 273
287 290 295 298 295 291 286 280 278 277 272 267 264 264 265 269 272 274 276 279 283 285 284 279 275 272 270 269 270 270 271 277 282 280 279 278 272 270 275 281 284 283 282 281 278 276 278 279 278 277 275 274 277 279 279 280 281 283 285 287 290 291 292 294 295 296 296 296 294 293 290 289 287 285 283 282 282 281 281 281 281 280 278 275 274
285 285 287 289 288 286 283 281 278 276 275 275 274 273 275 276 277 276 276 277 279 278 276 276 275 274 274 273 273 272 270 270 271 270 268 266 266 268 271 276 279 279 279 280 279 278 281 282 279 275 271 271 274 276 278 278 279 281 284 286 288 289 291 293 295 296 296 295 294 293 292 291 291 289 287 286 284 283 283 283 283 283 282 280 278
284 286 287 287 286 286 285 283 280 278 277 277 276 276 278 280 279 279 277 276 276 276 276 277 276 273 271 270 270 270 270 270 268 266 265 264 264 265 266 269 271 271 273 276 277 278 280 281 279 274 272 272 273 274 275 276 278 280 282 284 286 288 291 293 294 295 294 293 293 293 293 293 292 291 290 289 287 286 286 286 285 285 283 282 281
281 283 286 286 286 285 284 282 280 279 278 278 279 280 280 281 281 280 280 280 279 278 277 275 274 273 271 270 271 271 271 270 267 264 262 263 265 267 266 266 266 266 268 271 274 276 278 279 277 274 273 272 271 272 273 274 277 280 281 282 283 286 288 290 291 291 291 291 291 291 291 290 289 289 289 289 288 287 287 287 287 286 284 283 282
279 280 282 282 282 283 283 282 280 279 279 278 279 280 280 279 279 279 279 279 279 279 277 275 272 270 268 268 269 270 269 267 264 263 263 262 263 265 266 265 264 263 263 266 271 274 276 276 274 273 272 272 271 271 272 273 276 278 279 280 282 284 286 287 287 288 288 288 289 289 288 287 286 285 284 285 286 286 286 285 285 285 284 284 283
272 273 273 272 274 274 274 275 276 277 278 278 278 279 279 279 278 278 277 275 275 275 275 276 274 272 270 268 268 268 267 265 265 265 266 263 261 261 262 263 264 264 266 269 273 275 275 274 272 270 270 270 271 272 274 275 277 277 277 278 280 282 284 285 286 287 287 288 288 288 288 287 286 285 284 283 283 284 285 284 283 282 282 281 280
270 270 269 268 269 270 270 272 272 273 275 276 278 278 279 279 279 277 275 273 271 270 270 271 272 272 272 270 269 268 268 270 272 272 271 269 266 264 263 263 264 267 268 269 270 271 272 272 272 271 270 270 271 273 275 278 279 278 279 280 281 283 284 286 287 287 287 288 288 288 287 287 287 287 286 285 284 284 284 283 282 280 279 278 276
264 266 267 269 270 271 273 274 275 276 276 275 277 278 278 278 278 277 276 272 270 268 266 266 266 267 269 270 270 271 272 275 276 274 270 270 272 272 271 269 268 267 267 267 269 271 273 272 272 272 272 273 274 276 277 278 279 279 281 281 282 283 283 284 285 285 286 286 287 287 287 287 287 287 286 286 284 284 283 282 281 280 278 277 274
260 263 266 268 270 270 273 277 281 282 281 280 280 280 280 279 279 278 277 274 272 270 267 265 264 265 268 271 273 275 276 277 277 275 272 270 271 272 272 272 272 271 271 271 272 272 271 272 273 275 276 275 275 275 276 276 277 278 278 278 278 279 280 282 282 282 282 283 284 285 286 287 287 287 286 286 285 284 282 281 281 279 278 277 275
261 264 266 268 270 271 275 279 283 284 285 285 283 282 282 282 282 281 280 278 277 275 273 271 271 271 274 277 279 280 281 280 279 278 275 272 270 269 269 270 272 271 271 271 271 270 271 275 278 278 278 277 275 273 273 274 275 276 276 276 276 277 278 280 279 279 279 280 282 284 285 286 286 286 285 285 284 284 282 281 281 279 278 277 276
260 261 263 266 269 272 276 279 282 283 284 283 282 280 279 279 279 280 279 279 278 277 276 276 277 278 281 283 286 286 286 285 283 280 275 271 269 269 268 269 269 269 269 269 270 272 274 277 279 278 278 277 276 275 274 274 275 276 276 275 276 277 279 280 279 279 279 280 282 283 283 284 284 284 283 283 282 282 281 281 280 279 278 276 275
258 259 261 263 266 270 274 277 280 282 282 282 282 281 280 278 276 275 275 276 277 276 276 276 278 280 282 284 286 288 289 288 286 282 277 272 269 268 268 268 267 267 267 268 270 273 275 276 277 278 278 278 278 278 278 278 279 280 280 281 281 282 282 282 282 283 283 282 283 283 283 283 283 283 282 281 281 280 280 280 279 278 277 277 276
258 260 262 263 265 268 272 276 279 281 283 283 283 284 283 282 281 280 279 279 277 276 275 276 277 279 281 283 285 286 288 287 286 283 280 275 270 266 265 264 263 263 266 268 270 273 274 275 276 277 278 279 280 281 281 281 282 283 285 286 286 287 286 286 286 286 286 286 285 285 285 284 283 282 281 280 279 279 278 277 277 277 277 276 276
266 266 267 268 269 271 274 277 279 281 282 284 284 284 284 284 285 285 284 283 281 280 278 277 277 278 279 281 282 284 286 285 283 281 278 275 270 263 259 259 260 263 266 268 270 272 273 275 276 278 279 280 280 280 281 281 283 285 287 289 289 290 290 289 289 289 288 288 287 286 285 284 282 281 280 279 279 279 278 278 277 277 276 276 276
275 274 274 274 274 275 276 278 279 280 281 282 282 282 282 283 284 283 283 283 282 280 280 281 282 282 281 281 283 284 283 281 279 276 274 272 268 263 260 260 261 263 264 266 269 272 274 276 277 278 280 280 280 280 281 283 285 287 288 290 290 291 290 290 290 290 289 289 288 287 286 285 284 283 282 282 281 281 281 281 280 279 278 277 277
274 275 277 277 276 275 276 278 280 282 282 282 282 282 283 283 282 282 282 281 280 281 283 284 285 284 284 285 286 284 281 277 273 271 269 267 265 263 262 262 263 263 265 267 270 272 275 276 276 277 278 279 280 282 284 286 287 288 289 290 290 290 290 290 291 290 290 290 289 289 289 288 288 287 286 286 285 284 283 282 282 281 280 279 278
270 272 273 274 275 276 278 280 282 282 282 282 282 282 281 279 279 279 279 279 281 284 285 285 285 285 286 286 284 279 274 271 268 267 266 266 265 264 263 264 264 265 266 268 270 272 273 274 274 276 278 281 283 284 286 287 289 289 289 290 290 291 291 291 291 291 291 291 291 291 291 291 291 290 290 289 288 287 286 284 283 281 280 278 277
271 270 271 274 277 280 281 280 279 278 278 278 277 276 276 276 276 277 279 280 282 283 284 285 286 286 285 284 278 271 269 268 268 269 269 267 266 265 265 265 264 263 263 265 268 271 274 276 279 282 284 285 286 287 287 288 289 289 290 291 292 292 292 292 292 293 293 293 293 293 292 292 292 291 291 290 289 287 287 286 284 282 280 278 276
270 271 274 278 281 282 281 277 275 273 273 272 272 273 273 275 277 279 280 280 280 280 281 283 284 284 284 280 272 268 270 272 273 272 271 269 267 266 264 263 262 261 263 267 273 277 281 284 286 287 287 287 287 287 287 288 290 291 292 293 294 295 295 295 295 295 295 295 294 294 294 293 293 292 291 290 289 288 287 286 284 283 281 279 276
271 275 277 280 280 279 278 277 275 274 273 272 273 275 276 277 278 279 278 277 276 277 278 279 281 281 278 271 266 270 275 277 276 274 270 269 268 266 264 264 265 267 271 276 281 284 286 286 286 286 286 287 288 289 291 294 295 296 297 297 297 297 296 296 295 295 294 294 293 293 292 292 291 290 290 289 288 288 287 286 285 283 282 280 277
274 277 278 278 278 278 278 278 278 278 277 276 277 278 277 277 277 277 275 273 272 273 275 275 273 269 267 267 270 274 276 275 272 272 272 272 272 271 271 271 273 276 280 282 283 284 284 285 286 287 289 292 294 297 298 298 298 297 297 297 296 295 295 294 294 293 293 292 292 292 291 290 289 289 288 287 287 287 287 286 285 284 284 282 279
274 276 277 278 278 279 281 281 281 280 279 278 278 277 277 276 275 273 271 269 268 268 266 264 261 262 267 271 271 269 265 258 252 260 271 274 271 269 271 275 278 281 282 282 283 285 287 290 292 295 298 300 300 299 298 297 296 295 295 295 295 294 294 294 294 294 294 293 293 293 292 291 290 289 288 286 286 286 286 286 285 285 286 285 283
278 278 278 279 280 282 282 282 281 280 279 279 278 276 275 274 272 270 269 268 267 263 258 256 259 263 265 264 258 254 249 237 229 241 255 260 261 266 271 275 278 281 281 284 288 292 296 300 302 303 302 300 298 297 297 297 297 297 297 297 298 298 299 298 298 297 296 296 296 295 295 294 293 291 291 289 288 287 286 285 285 285 288 289 289
283 282 281 281 281 282 282 281 280 279 278 278 277 274 272 271 270 271 271 268 264 260 256 256 256 255 251 246 241 235 228 221 225 243 255 259 262 268 272 275 279 283 287 293 299 303 305 305 303 301 298 297 298 300 301 301 302 303 304 305 306 305 304 302 300 299 297 296 296 296 297 296 295 295 294 292 291 289 287 284 284 284 286 288 289
283 283 283 282 281 281 280 280 280 278 276 274 272 271 269 268 268 267 265 262 256 249 245 243 239 235 233 231 224 213 206 212 236 255 259 260 262 264 269 277 284 290 296 302 305 306 303 300 297 298 299 302 304 306 307 309 311 313 313 313 312 310 307 303 300 298 296 296 296 296 296 295 295 295 295 294 293 291 289 286 285 284 284 284 283
281 282 283 283 283 282 281 280 279 277 273 270 267 265 261 258 253 245 240 241 239 232 225 221 220 221 219 213 202 192 196 220 241 247 250 256 262 268 278 285 289 295 302 304 302 299 298 298 300 304 307 310 313 315 317 319 321 321 320 317 315 311 307 303 300 298 297 297 297 297 296 296 297 298 297 296 295 294 292 291 288 286 285 284 282
282 284 285 286 286 285 283 280 276 270 263 255 249 242 234 228 221 213 214 223 228 223 216 211 207 202 196 187 179 183 203 222 231 240 250 260 269 278 284 288 294 301 303 302 300 301 303 307 311 315 317 320 322 324 326 329 330 328 326 323 320 316 312 309 305 302 301 301 301 300 301 301 301 301 299 298 298 297 295 293 291 289 288 287 285
286 287 289 291 290 286 278 268 255 234 212 209 212 211 207 204 204 206 211 214 212 206 200 195 187 177 166 161 171 191 208 221 233 246 259 268 276 283 288 294 299 301 302 305 309 312 315 318 322 324 326 328 330 333 336 338 338 335 331 328 325 322 318 315 311 308 306 307 307 306 306 305 304 303 302 304 305 302 298 293 289 287 286 285 284
291 293 294 291 283 269 253 229 195 169 166 180 189 186 179 179 185 188 184 178 173 171 170 166 156 146 146 159 182 204 222 235 246 257 266 272 277 282 285 289 296 302 309 316 320 322 326 329 331 333 335 336 339 342 345 345 342 338 334 331 328 326 323 319 315 313 313 313 313 311 310 309 309 311 313 314 310 303 299 299 298 295 290 287 285
298 295 287 269 226 175 147 139 138 139 144 148 150 149 147 148 149 148 143 139 136 135 134 133 132 141 160 178 198 220 233 242 254 266 271 271 270 269 271 283 304 319 325 329 332 334 336 337 339 341 342 343 346 350 351 348 343 338 334 333 333 331 328 324 319 316 315 315 315 314 311 312 317 319 316 310 303 299 304 312 319 319 312 302 298
284 252 176 134 121 114 111 112 113 116 120 122 122 121 121 121 122 123 123 121 120 123 128 138 157 177 187 195 206 215 225 245 261 251 244 244 244 249 289 332 343 342 343 345 344 342 342 345 348 347 346 348 353 355 353 348 343 339 337 338 340 339 335 330 324 320 318 317 315 312 311 316 325 328 324 315 307 303 305 309 313 315 313 308 303
174 148 132 122 116 114 112 111 111 110 111 111 111 112 113 114 117 122 124 123 130 141 154 171 186 191 193 203 214 213 167 132 159 170 175 181 141 58 29 8 0 358 356 352 347 345 348 353 353 350 350 354 358 357 352 348 345 343 344 346 349 348 345 340 336 332 329 324 319 317 326 335 340 345 345 338 329 322 314 307 305 305 306 303 299
146 135 126 120 118 118 117 115 115 115 116 116 118 121 124 130 136 140 138 138 146 158 169 180 185 183 186 199 211 198 133 139 142 129 110 87 62 43 25 14 10 6 360 354 350 350 355 358 355 353 355 359 358 355 352 349 348 349 352 355 357 356 354 351 349 348 347 346 344 342 341 341 343 347 344 337 332 330 326 318 311 306 303 300 296
141 131 124 120 121 122 120 117 117 120 123 125 127 130 132 134 135 134 134 138 146 157 169 174 169 166 176 182 169 122 110 117 106 87 71 56 39 25 21 21 16 7 359 355 353 355 359 360 357 356 359 0 357 354 353 351 351 354 358 360 1 1 1 360 1 3 4 3 356 342 334 332 332 330 324 319 320 325 326 321 316 314 312 305 298
145 137 133 131 131 129 126 125 125 125 125 127 129 131 130 126 118 114 115 128 145 161 175 170 155 159 170 148 110 97 102 89 75 67 55 38 22 19 21 20 13 6 1 357 358 1 2 -0 357 359 1 360 356 355 355 353 353 357 1 2 3 4 5 7 11 12 7 358 344 330 323 322 322 321 319 315 314 318 323 321 321 326 329 321 309
150 144 138 135 134 131 131 135 137 133 130 129 126 123 121 117 113 113 152 221 178 172 174 169 163 171 151 110 100 110 111 78 63 53 39 22 13 14 16 15 11 6 3 0 1 4 3 360 358 360 1 359 355 354 355 356 356 358 2 3 3 4 6 11 14 12 1 351 342 335 332 332 334 334 330 324 318 318 323 327 331 340 344 340 331
155 150 143 140 142 140 137 138 138 132 128 128 127 126 128 135 148 181 214 218 183 153 145 150 160 155 120 102 105 107 87 67 53 44 31 18 12 11 10 9 8 7 4 3 3 4 3 0 359 359 360 358 354 353 356 358 359 0 2 3 3 4 7 10 10 6 359 353 349 351 354 355 354 351 345 338 333 333 332 333 346 4 12 13 14
159 154 147 144 147 146 142 139 137 133 131 134 137 140 145 156 169 182 186 170 140 124 123 135 135 120 104 96 88 77 69 57 46 35 25 17 14 9 5 4 5 6 6 4 3 3 3 1 359 359 1 359 355 354 357 1 2 2 3 4 4 4 6 8 7 3 358 357 1 7 10 8 5 3 0 356 354 355 344 343 9 34 37 36 38
151 149 143 135 139 146 149 146 143 142 144 148 151 155 162 172 172 163 151 133 122 118 115 107 97 93 91 82 60 53 51 46 37 26 17 13 11 6 2 2 3 4 5 4 2 3 3 1 359 0 2 360 356 357 1 3 3 3 4 4 4 5 7 9 7 1 357 359 6 13 15 13 12 13 15 15 8 351 330 0 51 53 40 32 34
136 132 131 132 141 153 157 154 151 154 162 171 173 171 172 173 159 138 124 116 113 110 107 101 90 80 74 64 50 40 35 32 26 17 9 5 3 0 360 0 0 1 3 3 2 2 1 0 1 2 2 359 359 2 5 6 5 4 4 6 7 8 9 9 8 4 -0 0 5 10 14 17 17 18 21 23 20 9 357 95 119 65 35 28 28
136 130 133 139 148 159 164 165 165 173 191 204 199 180 159 146 138 129 119 114 108 100 94 91 85 74 59 42 29 21 15 14 10 4 359 356 355 355 355 355 357 358 360 1 2 1 359 359 3 4 0 358 360 5 8 8 5 4 5 7 9 10 10 9 9 8 4 2 3 5 10 16 20 20 21 22 23 24 29 49 123 62 35 31 29
147 149 153 154 156 162 167 169 177 194 213 223 218 190 153 145 142 132 121 115 108 100 96 91 83 70 51 24 9 2 358 355 352 350 349 347 347 348 349 349 352 354 356 359 1 360 358 -0 4 2 358 357 1 6 9 8 6 6 7 7 8 10 11 10 10 10 8 4 3 4 5 9 16 20 20 21 23 27 32 34 21 337 336 3 12
172 171 163 156 161 173 180 186 200 217 224 226 226 213 181 160 149 139 130 121 111 104 103 99 86 64 30 2 348 343 342 342 340 339 339 338 339 340 342 343 345 348 351 355 358 358 359 2 3 359 355 358 2 6 8 8 7 7 8 7 5 7 9 10 11 12 11 8 5 4 3 3 7 13 18 21 22 24 26 28 25 12 346 312 304
Height
3102 3103 3105 3107 3109 3110 3112 3115 3117 3118 3119 3119 3120 3121 3122 3123 3123 3123 3124 3124 3125 3125 3126 3126 3127 3127 3127 3127 3128 3129 3129 3129 3130 3130 3130 3130 3130 3130 3130 3131 3131 3130 3130 3130 3129 3129 3129 3129 3129 3129 3129 3128 3128 3128 3127 3127 3127 3127 3126 3126 3126 3127 3127 3127 3127 3126 3126 3126 3126 3126 3126 3126 3126 3125 3125 3125 3124 3124 3124 3124 3124 3124 3125 3125 3125
3101 3102 3103 3105 3107 3109 3111 3112 3114 3116 3117 3116 3117 3118 3120 3120 3121 3121 3122 3122 3123 3123 3124 3124 3125 3125 3125 3125 3126 3126 3127 3128 3128 3129 3129 3129 3129 3130 3130 3130 3130 3130 3130 3129 3129 3129 3129 3128 3128 3128 3128 3127 3127 3127 3127 3126 3126 3126 3126 3126 3126 3126 3126 3126 3126 3126 3125 3125 3125 3125 3124 3124 3124 3123 3123 3123 3123 3122 3121 3121 3121 3121 3121 3121 3121
3099 3100 3102 3103 3105 3107 3109 3109 3111 3113 3113 3114 3115 3116 3117 3118 3119 3120 3120 3121 3121 3122 3122 3122 3121 3122 3124 3124 3125 3125 3125 3125 3126 3126 3127 3127 3128 3128 3128 3128 3128 3128 3129 3128 3128 3128 3128 3128 3127 3127 3126 3126 3126 3126 3125 3125 3125 3125 3124 3124 3124 3124 3124 3124 3124 3124 3124 3124 3123 3123 3123 3122 3122 3122 3121 3121 3120 3120 3119 3119 3119 3118 3118 3118 3118
3098 3099 3100 3101 3103 3104 3106 3107 3109 3110 3110 3111 3113 3114 3114 3115 3117 3118 3119 3119 3119 3119 3119 3118 3119 3120 3122 3123 3124 3124 3123 3122 3123 3123 3124 3125 3125 3126 3126 3127 3127 3126 3126 3127 3127 3127 3126 3126 3126 3126 3125 3125 3124 3124 3124 3123 3123 3123 3123 3123 3123 3122 3122 3122 3122 3122 3122 3122 3122 3121 3121 3120 3120 3119 3118 3118 3117 3117 3116 3116 3116 3116 3115 3115 3115
3097 3098 3099 3100 3101 3102 3103 3105 3107 3108 3108 3109 3111 3112 3112 3113 3114 3116 3117 3117 3117 3117 3116 3116 3117 3118 3119 3120 3120 3120 3119 3119 3121 3122 3123 3123 3123 3124 3124 3124 3124 3124 3124 3124 3124 3124 3124 3124 3124 3124 3123 3123 3122 3122 3122 3122 3121 3121 3121 3120 3120 3120 3120 3119 3119 3119 3118 3118 3119 3118 3118 3117 3117 3117 3115 3114 3114 3113 3113 3112 3112 3112 3112 3112 3112
3096 3097 3098 3099 3099 3100 3101 3103 3104 3105 3106 3107 3108 3109 3110 3110 3111 3113 3114 3114 3114 3113 3113 3113 3114 3115 3116 3116 3116 3115 3114 3115 3117 3119 3121 3121 3121 3121 3121 3121 3121 3121 3121 3121 3121 3121 3122 3122 3122 3121 3121 3121 3120 3120 3120 3119 3119 3118 3118 3117 3117 3117 3116 3116 3115 3115 3114 3114 3114 3114 3114 3113 3113 3113 3112 3111 3110 3110 3109 3109 3109 3108 3108 3108 3108
3096 3096 3097 3098 3098 3099 3100 3101 3102 3103 3103 3104 3105 3106 3107 3108 3109 3110 3110 3110 3110 3109 3109 3110 3111 3112 3112 3112 3112 3112 3111 3111 3113 3115 3116 3117 3117 3117 3117 3118 3118 3118 3118 3118 3118 3118 3118 3118 3119 3119 3118 3118 3117 3117 3117 3116 3116 3115 3115 3114 3114 3113 3113 3112 3112 3111 3111 3110 3110 3109 3109 3109 3109 3108 3107 3106 3106 3105 3105 3105 3105 3105 3105 3104 3104
3095 3095 3096 3097 3097 3098 3098 3100 3101 3101 3101 3102 3103 3104 3105 3105 3106 3106 3106 3106 3106 3106 3106 3106 3108 3109 3110 3109 3110 3110 3109 3109 3110 3111 3112 3113 3113 3114 3114 3114 3115 3115 3115 3115 3114 3114 3115 3115 3115 3115 3115 3114 3113 3113 3113 3113 3112 3112 3111 3111 3110 3110 3109 3109 3108 3107 3106 3106 3106 3105 3104 3104 3104 3103 3102 3101 3100 3100 3099 3099 3099 3101 3100 3100 3100
3094 3095 3095 3096 3096 3097 3098 3098 3099 3099 3100 3101 3101 3102 3102 3103 3103 3103 3103 3103 3103 3103 3103 3104 3105 3106 3107 3106 3106 3107 3107 3108 3108 3109 3110 3110 3110 3111 3111 3111 3111 3111 3111 3111 3111 3111 3111 3111 3111 3111 3111 3110 3110 3109 3109 3109 3109 3108 3108 3107 3107 3106 3105 3104 3103 3102 3101 3101 3100 3100 3099 3099 3099 3097 3097 3096 3095 3094 3094 3093 3093 3094 3094 3094 3095
3093 3093 3094 3095 3095 3095 3096 3097 3097 3098 3098 3099 3099 3100 3100 3100 3101 3101 3101 3101 3101 3101 3101 3101 3102 3102 3103 3103 3103 3104 3105 3106 3106 3106 3107 3107 3107 3107 3107 3107 3107 3107 3107 3106 3106 3107 3107 3107 3107 3107 3106 3106 3106 3105 3105 3105 3104 3104 3104 3103 3102 3101 3100 3100 3099 3097 3096 3095 3095 3094 3093 3093 3093 3092 3091 3091 3089 3088 3088 3088 3087 3087 3087 3087 3089
3091 3091 3092 3092 3093 3093 3094 3094 3094 3095 3095 3096 3096 3096 3097 3097 3098 3098 3098 3098 3098 3098 3098 3098 3099 3099 3099 3099 3100 3100 3101 3102 3103 3103 3103 3103 3103 3103 3104 3104 3103 3103 3102 3102 3102 3103 3103 3104 3103 3103 3102 3102 3102 3101 3100 3100 3100 3100 3099 3098 3097 3097 3096 3095 3094 3093 3091 3090 3090 3089 3088 3088 3088 3087 3085 3085 3084 3083 3083 3083 3082 3082 3082 3081 3082
3088 3088 3089 3089 3090 3090 3090 3091 3091 3091 3092 3092 3092 3092 3093 3093 3094 3094 3095 3095 3095 3095 3095 3095 3095 3095 3096 3096 3096 3097 3097 3098 3099 3099 3100 3100 3099 3099 3100 3100 3100 3099 3099 3098 3098 3098 3099 3099 3099 3098 3098 3097 3097 3096 3096 3096 3096 3095 3095 3094 3093 3092 3091 3090 3089 3088 3086 3085 3085 3085 3084 3083 3082 3082 3081 3079 3078 3078 3078 3077 3076 3076 3075 3075 3075
3085 3086 3086 3086 3087 3087 3087 3087 3088 3088 3088 3089 3089 3089 3089 3089 3090 3090 3090 3091 3091 3091 3091 3092 3092 3092 3092 3093 3093 3093 3093 3094 3094 3095 3095 3096 3096 3095 3095 3095 3095 3095 3095 3095 3095 3095 3095 3095 3094 3093 3093 3093 3092 3091 3091 3091 3091 3091 3090 3089 3088 3088 3087 3086 3084 3083 3082 3081 3080 3080 3080 3078 3077 3077 3077 3075 3073 3073 3072 3072 3072 3070 3069 3069 3070
3083 3083 3084 3084 3084 3084 3084 3084 3084 3084 3085 3085 3085 3085 3086 3086 3086 3086 3087 3087 3087 3087 3087 3088 3088 3088 3089 3089 3089 3089 3089 3089 3090 3091 3092 3092 3092 3091 3091 3091 3090 3090 3091 3091 3091 3091 3090 3090 3089 3088 3088 3088 3087 3086 3086 3086 3086 3086 3085 3084 3083 3082 3081 3080 3079 3078 3077 3076 3074 3074 3074 3073 3071 3072 3072 3070 3068 3067 3067 3066 3066 3065 3064 3064 3064
3080 3080 3081 3081 3081 3081 3081 3081 3081 3081 3082 3082 3082 3082 3083 3083 3083 3083 3084 3084 3084 3084 3084 3084 3084 3085 3085 3085 3085 3085 3085 3085 3087 3088 3088 3088 3087 3087 3087 3087 3087 3086 3087 3087 3086 3086 3085 3085 3084 3083 3083 3082 3082 3082 3081 3081 3080 3080 3079 3078 3077 3077 3076 3075 3074 3073 3072 3070 3069 3068 3067 3067 3066 3065 3065 3065 3063 3062 3061 3060 3059 3059 3058 3058 3058
3077 3077 3077 3078 3078 3078 3078 3078 3078 3078 3078 3079 3079 3079 3080 3080 3080 3080 3080 3081 3081 3081 3081 3081 3081 3081 3081 3081 3081 3082 3082 3082 3083 3084 3084 3083 3083 3083 3083 3083 3083 3083 3083 3082 3082 3081 3080 3080 3079 3079 3078 3077 3077 3077 3077 3076 3075 3074 3073 3073 3072 3071 3071 3070 3069 3067 3066 3065 3063 3062 3061 3061 3060 3060 3059 3058 3058 3056 3055 3054 3053 3052 3051 3051 3051
3074 3074 3075 3075 3075 3075 3075 3075 3075 3075 3075 3075 3075 3076 3076 3076 3077 3077 3077 3077 3077 3077 3077 3077 3077 3078 3078 3079 3079 3079 3079 3079 3079 3079 3080 3080 3080 3080 3079 3079 3079 3079 3078 3078 3078 3077 3076 3076 3075 3075 3074 3073 3073 3072 3071 3071 3070 3069 3068 3067 3066 3066 3065 3064 3063 3062 3061 3059 3058 3057 3055 3054 3054 3053 3052 3051 3050 3049 3048 3047 3047 3046 3044 3043 3043
3071 3071 3071 3071 3071 3072 3072 3072 3072 3072 3072 3072 3072 3072 3073 3073 3073 3073 3073 3073 3073 3073 3073 3073 3073 3074 3075 3075 3075 3075 3076 3076 3075 3075 3075 3076 3076 3076 3075 3075 3074 3074 3074 3074 3074 3073 3072 3072 3071 3070 3069 3069 3068 3067 3066 3066 3065 3064 3063 3062 3060 3060 3059 3058 3057 3056 3055 3054 3053 3051 3050 3049 3047 3047 3046 3045 3044 3042 3041 3040 3039 3038 3037 3036 3035
3067 3067 3068 3068 3068 3068 3068 3068 3068 3068 3068 3068 3069 3069 3069 3069 3069 3069 3069 3069 3068 3068 3068 3068 3069 3069 3070 3071 3071 3071 3071 3071 3071 3071 3071 3071 3071 3071 3071 3071 3070 3070 3070 3070 3069 3069 3068 3067 3066 3065 3064 3063 3062 3062 3061 3061 3060 3058 3057 3056 3055 3054 3054 3052 3051 3050 3049 3048 3047 3046 3044 3043 3042 3041 3040 3039 3038 3036 3034 3033 3032 3031 3030 3029 3028
3063 3063 3064 3064 3064 3064 3064 3064 3064 3064 3064 3064 3065 3065 3065 3065 3066 3065 3065 3065 3064 3064 3064 3064 3065 3065 3065 3066 3066 3066 3066 3066 3066 3066 3066 3067 3067 3067 3067 3066 3066 3066 3065 3065 3064 3063 3062 3062 3061 3060 3059 3058 3057 3056 3056 3055 3053 3052 3051 3050 3049 3048 3048 3046 3045 3044 3043 3041 3040 3039 3038 3037 3035 3034 3033 3032 3031 3030 3028 3027 3025 3024 3022 3022 3021
3059 3059 3059 3060 3060 3060 3060 3060 3059 3059 3059 3060 3060 3060 3060 3060 3060 3060 3060 3059 3059 3060 3060 3060 3060 3061 3061 3061 3061 3061 3061 3060 3060 3061 3061 3061 3062 3062 3062 3062 3061 3061 3061 3060 3059 3058 3057 3057 3056 3055 3054 3053 3052 3052 3050 3049 3047 3046 3045 3045 3043 3042 3041 3040 3039 3037 3036 3034 3033 3032 3030 3029 3028 3027 3026 3025 3024 3023 3022 3020 3019 3017 3016 3015 3014
3054 3055 3055 3055 3055 3055 3055 3055 3055 3055 3055 3055 3056 3056 3056 3055 3055 3055 3054 3054 3054 3054 3054 3055 3056 3057 3057 3057 3056 3056 3055 3055 3055 3055 3055 3055 3056 3057 3057 3057 3056 3056 3056 3055 3054 3053 3052 3052 3051 3050 3049 3049 3048 3046 3045 3043 3042 3041 3040 3039 3037 3036 3034 3033 3032 3030 3029 3027 3026 3024 3023 3022 3020 3019 3018 3017 3016 3015 3014 3013 3012 3011 3009 3008 3006
3050 3050 3050 3051 3051 3050 3050 3050 3049 3050 3050 3050 3051 3051 3051 3050 3050 3050 3049 3048 3047 3048 3048 3050 3051 3051 3051 3051 3051 3051 3050 3050 3049 3049 3049 3049 3050 3051 3051 3051 3051 3051 3051 3050 3049 3048 3048 3047 3046 3045 3044 3043 3042 3041 3039 3038 3037 3036 3034 3033 3031 3030 3028 3026 3025 3023 3021 3019 3018 3016 3015 3013 3012 3011 3010 3009 3008 3007 3006 3005 3004 3003 3002 3001 2999
3045 3045 3045 3046 3045 3045 3045 3045 3044 3045 3045 3045 3045 3045 3046 3045 3044 3044 3044 3042 3041 3042 3043 3044 3045 3045 3045 3046 3045 3045 3045 3044 3044 3044 3044 3044 3044 3045 3045 3045 3046 3046 3045 3045 3045 3044 3043 3043 3041 3040 3039 3038 3037 3036 3035 3033 3032 3031 3029 3028 3026 3024 3022 3020 3018 3016 3014 3012 3010 3008 3006 3005 3003 3002 3001 3000 2999 2998 2997 2997 2996 2995 2994 2993 2992
3041 3041 3040 3040 3040 3040 3040 3041 3040 3040 3040 3040 3039 3039 3039 3039 3039 3038 3038 3037 3037 3037 3037 3038 3039 3040 3040 3040 3040 3040 3040 3039 3039 3038 3039 3039 3040 3040 3040 3040 3040 3041 3041 3041 3040 3040 3039 3038 3037 3036 3035 3034 3033 3031 3030 3029 3027 3025 3024 3022 3020 3018 3016 3014 3011 3009 3007 3005 3002 3000 2998 2996 2995 2993 2992 2991 2990 2989 2988 2987 2987 2987 2986 2985 2984
3036 3036 3035 3035 3035 3036 3036 3036 3035 3035 3034 3034 3034 3034 3033 3033 3033 3033 3034 3033 3033 3032 3032 3033 3034 3034 3035 3035 3035 3035 3035 3034 3034 3034 3035 3035 3035 3035 3035 3035 3036 3036 3036 3036 3036 3035 3035 3034 3033 3032 3031 3030 3028 3027 3025 3024 3022 3020 3018 3016 3014 3012 3010 3007 3005 3002 2999 2997 2995 2993 2991 2989 2987 2985 2984 2982 2981 2980 2979 2978 2977 2977 2977 2976 2976
3030 3030 3030 3030 3030 3030 3030 3030 3029 3029 3029 3029 3028 3028 3028 3028 3029 3029 3029 3029 3028 3028 3028 3028 3029 3029 3030 3031 3031 3030 3030 3030 3030 3030 3030 3030 3030 3030 3031 3031 3031 3032 3032 3032 3031 3031 3031 3030 3029 3028 3027 3026 3024 3022 3021 3019 3017 3015 3013 3011 3009 3006 3003 3000 2997 2995 2992 2990 2987 2985 2983 2981 2979 2977 2975 2974 2972 2971 2970 2969 2968 2967 2967 2966 2966
3025 3025 3025 3025 3025 3024 3024 3024 3024 3024 3023 3023 3023 3023 3023 3024 3024 3024 3024 3024 3024 3024 3024 3024 3025 3025 3026 3027 3027 3026 3026 3027 3027 3026 3026 3026 3026 3027 3027 3027 3027 3028 3028 3028 3028 3028 3027 3026 3026 3024 3023 3022 3020 3018 3016 3014 3012 3010 3007 3005 3002 3000 2996 2994 2991 2988 2986 2983 2980 2978 2976 2973 2971 2969 2967 2966 2964 2963 2962 2960 2959 2959 2958 2957 2957
3021 3021 3020 3019 3019 3019 3019 3019 3019 3018 3017 3017 3017 3018 3018 3018 3018 3019 3019 3019 3019 3020 3020 3021 3021 3022 3022 3023 3023 3023 3023 3023 3023 3023 3023 3023 3023 3023 3024 3024 3024 3025 3025 3025 3025 3025 3024 3023 3022 3021 3019 3017 3016 3014 3012 3010 3007 3005 3002 3000 2997 2994 2991 2988 2985 2982 2979 2976 2973 2971 2969 2966 2964 2962 2960 2959 2957 2956 2955 2953 2952 2951 2950 2949 2949
3016 3015 3014 3013 3013 3013 3013 3013 3013 3012 3011 3011 3011 3012 3012 3012 3012 3013 3013 3014 3015 3016 3016 3017 3017 3018 3018 3019 3019 3019 3020 3020 3021 3021 3021 3022 3022 3022 3022 3022 3022 3022 3022 3022 3022 3021 3020 3019 3018 3017 3015 3013 3012 3010 3008 3005 3003 3000 2997 2995 2991 2988 2985 2981 2978 2974 2971 2969 2966 2964 2962 2959 2957 2955 2954 2952 2951 2950 2949 2948 2947 2945 2945 2944 2943
3010 3009 3008 3008 3007 3007 3007 3007 3006 3006 3005 3005 3005 3006 3006 3007 3006 3007 3007 3008 3009 3010 3011 3012 3013 3014 3015 3016 3016 3017 3017 3018 3019 3019 3020 3020 3020 3020 3020 3020 3020 3020 3020 3019 3019 3018 3017 3016 3014 3013 3011 3010 3008 3006 3003 3000 2997 2995 2992 2989 2986 2982 2978 2974 2971 2967 2964 2962 2959 2957 2955 2953 2951 2949 2948 2946 2945 2945 2945 2944 2942 2941 2940 2939 2939
3004 3003 3003 3002 3001 3001 3001 3000 3000 3000 2999 2999 2999 3000 3000 3001 3001 3001 3002 3003 3004 3005 3006 3007 3009 3010 3012 3013 3013 3014 3015 3016 3017 3017 3017 3017 3018 3018 3018 3018 3018 3017 3017 3016 3016 3015 3014 3013 3011 3010 3008 3006 3004 3001 2998 2995 2992 2989 2985 2982 2978 2975 2971 2968 2964 2961 2959 2956 2954 2952 2950 2948 2946 2944 2943 2942 2941 2940 2940 2940 2939 2937 2937 2936 2935
2999 2998 2997 2996 2996 2995 2995 2994 2993 2993 2993 2993 2993 2994 2995 2995 2996 2997 2997 2998 2999 3001 3002 3004 3006 3007 3008 3009 3010 3011 3012 3014 3015 3015 3015 3016 3016 3016 3017 3016 3016 3015 3015 3014 3013 3012 3011 3010 3009 3007 3005 3003 3000 2998 2995 2991 2987 2983 2979 2975 2971 2968 2965 2962 2959 2957 2954 2952 2950 2948 2946 2944 2942 2941 2940 2938 2937 2937 2936 2935 2935 2934 2933 2933 2932
2995 2994 2992 2991 2991 2990 2989 2988 2987 2986 2987 2987 2987 2988 2990 2991 2993 2994 2995 2996 2997 2999 3000 3002 3003 3005 3006 3007 3008 3009 3010 3011 3012 3013 3014 3014 3014 3014 3014 3014 3014 3013 3013 3012 3012 3011 3009 3008 3006 3004 3002 3000 2997 2994 2990 2986 2982 2978 2974 2970 2967 2963 2960 2957 2955 2952 2950 2948 2946 2944 2942 2940 2939 2937 2936 2935 2934 2933 2932 2932 2931 2930 2930 2929 2929
2990 2989 2988 2987 2986 2984 2983 2982 2981 2981 2981 2982 2984 2986 2987 2989 2991 2992 2993 2995 2996 2997 2999 3000 3001 3002 3004 3005 3006 3007 3009 3010 3011 3012 3012 3012 3012 3012 3012 3012 3012 3012 3011 3011 3009 3008 3007 3005 3003 3001 2999 2996 2993 2989 2985 2981 2978 2973 2969 2965 2962 2959 2956 2953 2951 2948 2946 2944 2942 2940 2938 2937 2936 2934 2933 2932 2931 2930 2930 2929 2928 2927 2927 2926 2926
2987 2986 2984 2983 2981 2979 2978 2978 2977 2978 2979 2980 2982 2984 2986 2988 2990 2991 2992 2994 2995 2996 2997 2999 3000 3001 3002 3004 3005 3007 3008 3009 3010 3010 3010 3010 3010 3010 3010 3010 3010 3010 3009 3008 3007 3005 3004 3003 3001 2998 2995 2992 2989 2985 2981 2977 2973 2969 2965 2961 2958 2955 2952 2949 2947 2944 2942 2941 2939 2937 2935 2934 2933 2932 2931 2930 2929 2928 2928 2927 2926 2925 2925 2924 2923
2984 2982 2981 2979 2978 2977 2976 2976 2976 2976 2978 2979 2981 2983 2985 2987 2989 2990 2992 2993 2994 2996 2997 2998 2999 3001 3002 3004 3005 3006 3007 3008 3009 3009 3009 3009 3009 3009 3009 3009 3009 3008 3007 3006 3005 3004 3002 3000 2998 2995 2992 2989 2985 2981 2977 2973 2970 2966 2962 2959 2955 2952 2949 2946 2943 2941 2939 2937 2936 2934 2933 2932 2931 2930 2929 2929 2928 2927 2926 2925 2924 2923 2922 2921 2921
2981 2979 2978 2978 2977 2976 2976 2976 2976 2977 2978 2979 2981 2983 2985 2987 2989 2991 2992 2993 2995 2996 2997 2998 3000 3001 3003 3004 3005 3006 3006 3007 3008 3008 3008 3008 3008 3008 3008 3008 3007 3007 3006 3005 3003 3001 2999 2997 2995 2992 2989 2985 2982 2978 2975 2971 2968 2964 2960 2957 2953 2950 2946 2943 2941 2938 2936 2935 2934 2933 2932 2931 2930 2930 2929 2928 2927 2926 2925 2924 2922 2921 2920 2919 2919
2980 2979 2978 2977 2977 2977 2978 2978 2979 2980 2981 2982 2983 2985 2987 2988 2990 2991 2993 2994 2996 2997 2998 3000 3001 3002 3003 3004 3005 3005 3006 3007 3007 3007 3007 3007 3007 3007 3007 3007 3006 3005 3004 3003 3001 3000 2998 2995 2992 2989 2986 2983 2979 2976 2973 2970 2967 2963 2959 2955 2951 2948 2944 2941 2939 2937 2935 2934 2932 2932 2931 2930 2930 2929 2928 2927 2925 2924 2924 2922 2921 2919 2919 2918 2917
2980 2979 2979 2979 2979 2979 2980 2981 2982 2983 2984 2985 2985 2987 2988 2990 2991 2993 2995 2996 2998 2999 3000 3001 3001 3002 3003 3003 3004 3004 3006 3006 3006 3006 3006 3006 3006 3006 3006 3005 3005 3004 3002 3001 3000 2998 2996 2993 2990 2987 2984 2981 2977 2974 2972 2969 2966 2962 2958 2953 2949 2946 2943 2940 2937 2936 2934 2933 2932 2931 2930 2930 2929 2928 2927 2925 2924 2923 2922 2920 2919 2918 2916 2915 2915
2981 2981 2981 2981 2981 2982 2983 2983 2984 2985 2985 2987 2988 2989 2990 2992 2993 2995 2996 2998 2999 3000 3000 3001 3001 3002 3003 3003 3003 3004 3005 3005 3005 3005 3005 3005 3005 3005 3005 3004 3003 3002 3001 3000 2999 2997 2994 2991 2988 2986 2982 2979 2976 2974 2971 2968 2965 2961 2956 2952 2948 2945 2941 2939 2936 2935 2933 2932 2931 2931 2930 2929 2928 2926 2925 2924 2923 2921 2920 2918 2917 2916 2914 2913 2912
2982 2983 2983 2983 2984 2984 2985 2985 2986 2987 2988 2989 2990 2991 2992 2994 2995 2996 2998 2999 2999 3000 3000 3000 3001 3002 3002 3003 3003 3004 3004 3004 3004 3004 3004 3004 3005 3005 3004 3003 3002 3001 3000 2999 2998 2995 2992 2989 2987 2984 2981 2978 2975 2972 2969 2967 2964 2960 2955 2951 2947 2944 2941 2938 2936 2934 2933 2932 2931 2930 2929 2928 2926 2925 2924 2922 2921 2919 2918 2916 2915 2914 2912 2910 2909
2983 2983 2984 2984 2985 2986 2987 2987 2989 2990 2990 2992 2992 2993 2994 2995 2996 2997 2998 2999 2999 2999 3000 3000 3001 3002 3002 3002 3003 3003 3003 3003 3003 3003 3004 3004 3004 3004 3003 3002 3001 3001 3000 2998 2996 2993 2990 2988 2986 2983 2980 2977 2974 2971 2968 2965 2962 2958 2954 2950 2947 2943 2941 2938 2936 2934 2933 2931 2930 2929 2928 2926 2925 2923 2921 2920 2918 2917 2916 2915 2914 2912 2910 2908 2906
2984 2984 2985 2986 2987 2987 2988 2989 2990 2991 2992 2993 2994 2995 2995 2996 2997 2997 2998 2999 2999 3000 3001 3001 3001 3002 3002 3003 3003 3004 3003 3003 3003 3003 3004 3004 3004 3004 3003 3002 3001 3000 2998 2997 2994 2992 2990 2987 2985 2982 2979 2977 2974 2971 2968 2964 2961 2958 2954 2950 2947 2944 2941 2938 2936 2934 2932 2931 2930 2928 2927 2925 2923 2921 2919 2917 2915 2914 2914 2913 2912 2911 2909 2907 2905
2985 2986 2987 2987 2988 2989 2990 2991 2991 2992 2993 2994 2995 2996 2997 2998 2998 2999 2999 2999 3000 3000 3001 3002 3002 3002 3002 3003 3003 3004 3004 3004 3003 3004 3004 3004 3003 3003 3002 3001 3000 2999 2997 2995 2993 2991 2989 2987 2985 2982 2979 2977 2974 2971 2968 2964 2961 2958 2954 2950 2947 2944 2941 2938 2936 2934 2932 2931 2929 2927 2926 2924 2921 2919 2917 2915 2913 2913 2912 2912 2912 2911 2909 2907 2905
2986 2987 2988 2988 2989 2990 2991 2992 2993 2993 2994 2996 2997 2997 2998 2999 2999 2999 3000 3000 3000 3001 3001 3001 3002 3003 3003 3003 3003 3003 3003 3003 3003 3003 3004 3003 3003 3002 3002 3001 3000 2998 2996 2994 2992 2990 2988 2987 2985 2982 2979 2976 2974 2971 2968 2965 2962 2959 2955 2952 2948 2945 2942 2939 2937 2934 2932 2930 2928 2926 2924 2922 2920 2918 2916 2914 2913 2912 2912 2912 2912 2911 2909 2908 2907
2987 2988 2988 2989 2990 2991 2992 2993 2994 2995 2996 2996 2997 2998 2998 2999 2999 2999 2999 3000 3001 3001 3001 3001 3002 3002 3003 3003 3003 3003 3003 3003 3003 3003 3003 3003 3002 3002 3001 3000 2999 2997 2996 2994 2992 2990 2988 2986 2984 2982 2979 2976 2974 2971 2968 2965 2962 2960 2956 2953 2950 2946 2943 2940 2937 2935 2933 2930 2927 2925 2923 2921 2920 2918 2916 2914 2913 2912 2912 2912 2912 2911 2910 2909 2908
2987 2988 2989 2990 2991 2992 2993 2993 2994 2995 2996 2997 2997 2998 2998 2999 2999 2999 3000 3000 3001 3001 3001 3001 3002 3002 3003 3003 3003 3003 3003 3003 3003 3003 3003 3002 3002 3001 3000 2999 2998 2997 2995 2993 2991 2990 2988 2986 2984 2981 2979 2976 2974 2971 2968 2965 2962 2960 2957 2954 2951 2947 2944 2941 2938 2936 2933 2931 2928 2926 2924 2922 2920 2918 2916 2915 2914 2913 2912 2912 2912 2912 2911 2911 2910
2988 2989 2990 2991 2991 2992 2993 2994 2995 2996 2996 2997 2998 2998 2999 2999 2999 2999 3000 3000 3001 3001 3001 3001 3002 3002 3003 3003 3003 3003 3003 3003 3003 3002 3002 3002 3001 3000 3000 2999 2997 2996 2995 2993 2991 2989 2987 2985 2983 2981 2979 2976 2973 2970 2967 2965 2963 2960 2958 2955 2952 2948 2945 2942 2940 2937 2935 2932 2930 2927 2925 2923 2921 2919 2917 2916 2915 2914 2913 2913 2913 2912 2912 2912 2911
2989 2990 2991 2992 2992 2993 2994 2995 2996 2996 2997 2998 2998 2999 2999 2999 2999 2999 3000 3000 3000 3001 3001 3001 3002 3002 3003 3003 3003 3003 3003 3002 3002 3002 3001 3001 3000 3000 2999 2998 2997 2995 2994 2993 2991 2989 2987 2985 2983 2981 2979 2976 2973 2970 2968 2966 2963 2961 2958 2955 2953 2950 2947 2944 2941 2938 2936 2934 2931 2929 2926 2924 2922 2920 2919 2917 2916 2915 2914 2913 2913 2913 2913 2912 2912
2990 2991 2992 2992 2993 2994 2994 2995 2996 2997 2997 2998 2998 2998 2999 2999 2999 2999 2999 3000 3000 3000 3001 3001 3002 3002 3002 3002 3002 3002 3002 3002 3002 3001 3001 3000 2999 2999 2998 2997 2996 2995 2993 2992 2990 2989 2987 2985 2983 2981 2979 2977 2973 2970 2968 2966 2964 2961 2958 2956 2954 2951 2949 2946 2943 2940 2937 2934 2932 2930 2927 2926 2924 2922 2920 2919 2917 2916 2915 2914 2914 2913 2913 2912 2912